Location: *
(47.5978°S, 178.1298°E)
Time: 13:23:22
(UTC+00:00)

Daily predictions for brighter satellites

Satellite Brightness Start Highest point End
(mag) Time Altitude Azimuth Time Altitude Azimuth Time Altitude Azimuth
USA 267 4.0 15:53:35 10° ESE 15:58:33 48° E 15:58:33 48° E
ATLAS 2AS CENTAUR R/B 4.0 16:30:06 25° S 16:30:06 25° S 16:33:09 10° SSE
CZ-4C R/B 3.2 16:26:48 55° N 16:28:14 64° ENE 16:35:09 10° SE
Cosmos 2297 Rocket 3.3 16:32:24 39° SE 16:33:03 40° SE 16:38:23 10° ENE
USA 234 3.2 16:29:40 10° ENE 16:36:06 84° ESE 16:36:06 84° ESE
Cosmos 2279 Rocket 4.0 16:49:32 73° N 16:49:32 73° N 16:55:10 10° N
Lacrosse 4 Rocket 3.8 16:53:22 17° NNE 16:53:22 17° NNE 16:54:27 10° NNE
Envisat 3.9 16:50:01 10° NE 16:54:54 46° ESE 16:57:33 25° S
Lacrosse 5 rocket 4.0 16:56:45 12° NNE 16:58:25 15° ENE 17:00:43 10° E
PAYLOAD B 4.4 16:53:05 10° NNE 16:57:37 62° N 16:57:37 62° N
Cosmos 2369 Rocket 4.3 17:03:36 14° S 17:03:36 14° S 17:04:38 10° S
Timation 2 Rocket 4.1 17:07:22 63° W 17:07:41 64° WNW 17:14:29 10° NNE
Cosmos 2227 Rocket 2.4 17:14:30 38° S 17:16:42 68° ESE 17:22:22 10° NE
Cosmos 2180 Rocket 4.4 17:13:54 30° SSW 17:17:14 71° W 17:23:38 10° N
Okean 2 3.7 17:14:37 10° N 17:18:44 67° E 17:22:55 10° SSE
Cosmos 2263 Rocket 4.5 17:17:11 10° S 17:21:01 18° SE 17:24:49 10° E
Cosmos 1271 Rocket 3.5 17:20:14 10° N 17:23:54 50° E 17:27:41 10° SSE
COSMOS 2455 4.3 17:25:19 22° SSW 17:25:19 22° SSW 17:28:53 10° SSE
Cosmos 921 Rocket 3.9 17:20:55 10° N 17:24:58 48° ENE 17:29:05 10° SSE
Cosmos 2219 3.1 17:26:08 49° SW 17:27:44 76° WNW 17:33:30 10° NNE
Cosmos 1544 Rocket 4.4 17:30:33 12° S 17:34:28 51° ESE 17:38:44 10° NNE
NOSS 3-1 (C) 4.0 17:31:45 25° SSW 17:35:24 54° SE 17:40:59 10° ENE
Okean O Rocket 1.8 17:31:12 10° N 17:35:01 53° NW 17:35:01 53° NW
BREEZE-M DEB (TANK) 4.0 17:33:10 33° W 17:37:38 80° SSW 17:41:29 10° ESE
Cosmos 1758 4.3 17:35:12 14° S 17:38:33 47° ESE 17:42:29 10° NNE
ADEOS Rocket 3.7 17:35:31 10° SSE 17:41:01 49° E 17:46:21 10° N
CZ-4 R/B 3.5 17:38:34 10° ENE 17:42:06 27° ESE 17:45:42 10° S
SMAP 2.9 17:37:58 10° N 17:42:39 71° WNW 17:44:43 34° SSW
USA 267 3.4 17:36:41 10° SE 17:43:08 59° SSW 17:45:54 35° W
SJ 16-02 2.3 17:41:02 18° S 17:44:10 47° ESE 17:48:27 10° NE
Cosmos 1777 Rocket 4.3 17:46:11 42° W 17:46:21 42° WNW 17:51:15 10° N
Cosmos 1707 4.2 17:43:31 10° NNE 17:47:14 40° E 17:51:01 10° SSE
AQUARIUS 4.1 17:43:40 10° N 17:48:11 69° WNW 17:50:24 30° SSW
USA 229 DEB 4.1 17:45:06 21° SSW 17:49:50 60° SE 17:56:21 10° ENE
USA 229 4.1 17:45:12 21° SSW 17:49:57 59° SE 17:56:28 10° ENE
Cosmos 1689 Rocket 4.2 17:52:03 19° NNW 17:52:03 19° NNW 17:53:00 10° NNW
Cosmos 1025 Rocket 4.3 17:46:51 10° NNE 17:50:55 42° E 17:55:03 10° SSE
Cosmos 1939 Rocket 4.3 17:50:35 10° NE 17:54:19 38° ESE 17:58:09 10° S
Feng Yun 1-1 Rocket 4.2 17:49:46 10° NNE 17:55:13 89° WNW 18:00:53 10° SSW
Okean-O 3.5 17:51:24 10° NE 17:55:43 49° ESE 18:00:06 10° S
Cosmos 1375 Rocket 4.4 17:51:53 25° SW 17:55:51 85° WNW 18:02:15 10° NNE
Cosmos 2026 Rocket 4.4 17:51:16 10° N 17:57:18 65° E 18:03:30 10° SSE
CZ-4B R/B 3.6 17:52:29 10° NNW 17:57:39 40° W 17:59:56 28° SW
Cosmos 1092 Rocket 4.0 17:53:37 10° N 17:59:54 88° E 18:06:12 10° S
NOSS 3-1 (A) 4.0 17:56:48 18° SSW 18:01:44 52° SE 18:07:18 10° ENE
Helios 1A Rocket 2.8 17:58:20 10° N 18:02:25 77° WNW 18:05:30 18° SSW
Cosmos 220 Rocket 4.4 18:03:05 39° WSW 18:03:31 40° WSW 18:07:38 10° S
YAOGAN 6 2.8 18:00:27 10° N 18:03:58 45° W 18:04:11 44° W
H-2A R/B 4.3 18:01:14 10° ENE 18:04:50 21° ESE 18:08:29 10° SSE
CORIOLIS 4.2 18:00:53 10° N 18:06:15 56° W 18:11:39 10° SSW
SKYMED 2 4.3 18:04:04 10° SSE 18:08:28 58° E 18:12:47 10° N
Cosmos 1726 2.9 18:05:57 10° S 18:09:39 52° ESE 18:13:18 10° NNE
Cosmos 1697 Rocket 3.0 18:04:43 10° NNW 18:10:20 71° ENE 18:16:01 10° SSE
Cosmos 1975 Rocket 3.5 18:12:44 10° NW 18:17:00 40° WSW 18:21:19 10° S
Cosmos 2297 Rocket 2.7 18:14:15 23° SW 18:17:05 38° WNW 18:22:17 10° N
CZ-4C R/B 3.2 18:12:04 19° W 18:17:12 43° SW 18:23:31 10° SE
USA 234 4.1 18:13:55 10° NNE 18:19:44 33° NW 18:23:27 20° W
ATLAS 2AS CENTAUR R/B 4.1 18:17:32 15° SW 18:20:16 19° S 18:24:47 10° SE
Nadezhda 4 Rocket 4.3 18:14:46 10° NW 18:20:46 44° WSW 18:26:47 10° S
Cosmos 1842 4.0 18:18:47 10° NW 18:22:20 30° WSW 18:25:56 10° S
PSLV R/B 3.9 18:19:30 10° S 18:23:38 67° WSW 18:27:46 10° NNW
IRS-1C Rocket 4.2 18:21:29 10° N 18:26:41 55° W 18:31:56 10° SSW
ARGOS Delta rocket 4.1 18:23:01 10° N 18:28:08 55° W 18:33:03 10° SSW
Cosmos 1953 2.4 18:24:31 10° S 18:28:39 87° E 18:32:43 10° N
Cosmos 1455 Rocket 3.8 18:27:14 16° SW 18:30:06 32° W 18:34:01 10° NNW
Envisat 4.0 18:29:52 10° NNW 18:34:08 26° W 18:37:45 13° SW
Cosmos 1470 3.5 18:32:25 15° SSW 18:35:13 33° W 18:38:46 10° NNW
Lacrosse 5 rocket 1.1 18:33:07 10° NW 18:36:59 86° SW 18:41:05 10° SE
Cosmos 1553 Rocket 4.1 18:41:09 10° S 18:47:40 78° W 18:54:05 10° N
Cosmos 1437 4.2 18:49:58 10° NNE 18:52:50 39° E 18:55:46 10° SSE
Meteor 2-10 4.4 18:50:13 10° SSW 18:55:24 46° W 19:00:21 10° NNW
S3M 4.0 18:50:01 10° S 18:56:17 89° W 19:02:26 10° N
COSMO-SKYMED 1 2.8 18:52:12 10° S 18:56:29 47° WSW 19:00:41 10° NW
Cosmos 1898 Rocket 3.8 18:51:21 10° SSW 18:56:32 52° WNW 19:01:42 10° N
Cosmos 1656 4.3 18:52:26 10° WNW 18:57:33 34° SW 19:02:46 10° SSE
Cosmos 2082 4.4 18:54:01 10° SW 18:59:16 36° WNW 19:04:28 10° N
Cosmos 2227 Rocket 3.5 18:56:22 11° SW 19:00:12 21° W 19:04:20 10° NNW
Cosmos 1271 Rocket 4.3 18:58:01 10° W 19:00:15 15° WSW 19:02:31 10° SSW
Cosmos 921 Rocket 4.3 19:00:25 10° WNW 19:03:32 20° WSW 19:06:42 10° S
Cosmos 1340 Rocket 4.0 19:01:51 10° SW 19:05:10 24° W 19:08:28 10° NW
Cosmos 2263 Rocket 2.5 19:00:13 10° SSW 19:06:00 73° ESE 19:11:44 10° NNE
Cosmos 2369 3.9 19:01:09 10° NW 19:06:45 52° WSW 19:12:23 10° SSE
Meteor 2-5 Rocket 4.5 19:01:14 10° N 19:06:47 59° E 19:12:18 10° SSE
Cosmos 1626 3.9 19:03:34 10° NNE 19:07:03 37° E 19:10:35 10° SSE
Cosmos 2058 Rocket 4.3 19:06:02 10° S 19:10:20 45° ESE 19:14:36 10° NNE
Timation 1 Rocket 4.5 19:04:36 10° SSW 19:10:38 67° WNW 19:16:37 10° NNE
CZ-2C R/B 3.2 19:07:37 10° NNE 19:12:34 79° ESE 19:17:51 10° SSW
Cosmos 1674 2.6 19:09:22 10° NNW 19:13:07 69° W 19:16:57 10° S
Resurs 01 Rocket 4.2 19:11:37 10° E 19:14:25 17° ESE 19:17:15 10° SSE
YAOGAN 1 3.0 19:11:18 10° N 19:15:28 43° W 19:19:42 10° SSW
CZ-4 R/B 2.3 19:13:13 10° NNW 19:16:59 33° W 19:20:53 10° SSW
Ariane Rocket 3.7 19:12:43 10° NNE 19:17:42 58° ESE 19:22:45 10° S
Cosmos 1536 Rocket 4.3 19:14:30 10° NW 19:18:23 30° WSW 19:22:19 10° S
Cosmos 1763 Rocket 3.7 19:13:11 10° NW 19:18:24 52° WSW 19:23:38 10° SSE
Cosmos 468 Rocket 4.3 19:13:43 10° NW 19:18:48 45° WSW 19:23:54 10° SSE
CZ-2D R/B 4.2 19:16:07 10° NNW 19:19:35 30° W 19:23:07 10° SSW
